Wind_Speed
9 9 9 9 9 9 10 9 9 9 10 11 11 12 12 12 12 12 12 12 12 12 13 13 13 13 14 14 14 14 14 15 15 15 15 15 15 15 15 15 14 15 14 14
9 10 10 10 10 10 10 10 10 10 11 11 12 12 12 12 12 12 12 12 12 12 13 13 13 14 14 14 14 14 15 15 16 16 16 16 15 16 15 14 14 14 15 15
10 10 11 11 11 10 10 11 11 11 11 12 12 13 13 13 13 12 12 12 13 13 12 13 13 14 14 14 14 14 15 15 16 16 16 16 16 15 14 14 14 15 15 15
11 11 11 12 12 11 11 11 12 12 11 11 12 13 13 13 13 12 12 12 12 13 13 13 13 14 14 14 15 15 15 16 16 16 16 15 14 14 14 14 14 15 15 15
11 12 12 12 13 13 13 13 13 12 13 13 12 13 12 13 13 12 13 13 13 14 14 14 14 15 15 15 15 15 15 16 15 15 15 15 15 15 15 15 15 16 16 16
12 12 13 13 13 13 13 13 14 14 14 14 13 13 12 13 12 13 13 14 14 15 15 15 15 16 16 16 16 15 15 15 15 15 15 16 16 16 16 16 17 17 17 17
12 12 13 13 13 13 13 13 14 14 14 14 14 14 13 12 13 14 14 15 15 16 16 17 17 17 17 17 17 17 16 16 16 16 16 17 17 17 17 17 17 18 18 18
12 13 13 13 13 13 13 14 14 15 16 16 15 15 14 13 14 15 15 16 16 17 17 18 18 18 18 17 17 18 18 17 17 18 18 18 18 18 18 18 18 19 19 20
13 13 13 14 13 14 14 15 15 16 17 17 17 16 15 14 14 15 15 16 17 18 18 19 19 19 19 19 19 19 19 20 20 20 20 20 20 20 20 20 20 20 20 21
14 14 14 15 15 15 16 16 16 17 17 17 17 17 16 15 15 16 16 16 17 18 18 18 19 19 20 20 20 20 21 21 21 21 21 22 22 21 21 22 22 22 21 22
15 15 15 16 16 16 16 17 17 18 19 18 19 19 18 18 17 17 17 17 18 18 18 19 19 20 20 20 20 20 21 21 22 22 23 22 22 23 23 23 23 23 23 23
16 16 16 16 16 16 17 17 17 18 19 19 20 20 20 19 19 19 18 18 19 19 19 19 20 20 21 21 21 21 21 22 23 23 24 23 24 24 24 24 24 24 25 24
16 16 16 16 16 16 17 17 18 19 20 20 20 21 21 21 21 20 20 20 20 20 20 20 20 21 22 22 22 22 22 23 23 24 24 24 24 24 24 25 24 25 25 25
17 16 17 17 17 17 17 18 18 19 19 20 21 21 22 22 21 21 21 21 21 21 21 21 22 22 22 23 23 23 23 24 24 24 24 24 24 24 25 26 25 25 25 24
17 18 17 18 18 18 18 18 19 19 19 20 21 21 21 22 22 22 22 22 21 21 22 22 23 23 23 24 24 24 24 24 24 24 24 24 24 24 25 25 25 25 24 24
17 18 19 19 19 19 19 19 19 20 20 21 21 22 22 23 23 23 23 22 22 22 23 23 23 24 24 24 24 25 25 24 24 24 24 24 24 24 24 25 24 25 24 24
17 18 19 20 20 21 21 20 19 20 20 20 21 22 23 24 24 24 24 23 23 23 24 24 25 24 25 25 25 25 24 24 24 24 24 24 24 24 24 24 24 24 24 25
17 18 19 20 21 22 21 20 21 21 22 21 21 22 23 24 24 25 25 25 25 25 25 25 25 25 25 25 25 25 25 24 24 25 25 25 25 25 25 24 24 24 24 25
18 19 20 22 22 23 22 22 22 23 23 23 23 23 24 24 24 25 25 26 26 26 26 26 25 25 25 25 25 25 25 25 25 25 26 26 25 25 25 24 24 24 24 24
19 20 21 22 23 24 24 24 24 25 25 24 25 24 25 24 24 25 25 26 27 27 26 26 26 25 25 25 25 26 26 26 26 25 26 26 25 25 24 24 24 24 24 24
20 21 21 23 24 25 25 25 25 25 25 25 25 25 24 24 24 24 25 25 26 26 26 26 26 26 26 25 25 26 26 26 26 26 26 26 25 25 25 24 24 24 24 24
21 22 22 24 24 24 24 25 25 26 26 26 26 25 25 24 24 24 24 24 24 25 25 26 26 27 27 26 26 26 26 26 26 26 26 26 26 25 25 25 25 25 25 25
22 23 23 24 23 23 23 24 25 26 26 26 26 25 25 25 24 24 25 25 25 26 26 26 27 27 28 28 27 27 27 27 26 26 26 26 26 25 25 25 25 25 24 24
23 23 23 23 22 22 22 23 23 24 25 25 25 25 25 25 25 25 26 26 26 27 26 26 26 26 27 27 27 27 27 27 26 26 26 26 26 25 25 24 24 24 24 24
23 23 22 22 21 21 22 23 23 23 24 25 25 25 25 25 25 25 26 26 26 27 27 27 27 27 27 27 27 27 27 26 26 26 26 26 26 25 24 24 24 24 24 25
22 22 22 22 22 23 22 23 24 24 24 25 25 25 26 27 27 27 27 27 28 28 28 28 28 27 27 27 27 27 27 27 27 27 26 26 26 25 25 24 24 24 24 24
Wind_Direction
267 266 267 267 265 265 264 261 260 259 257 255 253 253 255 257 259 260 260 261 263 265 267 268 268 268 267 267 265 263 262 262 262 263 264 265 267 268 271 272 271 271 273 276
269 268 269 267 265 265 264 263 262 261 262 259 256 255 257 257 257 258 258 258 265 268 269 271 270 269 269 269 267 265 265 264 264 264 264 265 267 268 270 272 272 274 275 276
271 271 269 268 266 264 265 266 266 269 268 264 264 261 260 259 258 256 257 259 265 271 272 273 272 269 269 269 270 268 266 266 267 267 265 265 266 266 269 271 272 272 274 277
274 272 272 272 271 266 268 267 268 271 271 270 267 266 261 262 258 255 255 259 263 267 269 270 268 269 269 271 271 268 268 268 269 267 264 265 266 267 268 270 271 272 274 276
276 274 274 274 274 270 268 269 269 270 271 271 269 268 265 260 260 257 258 261 263 265 266 268 269 268 269 271 273 270 269 269 268 265 264 264 266 268 271 271 272 272 274 276
280 277 274 274 273 271 268 269 270 270 270 270 269 267 263 262 262 261 262 265 266 267 266 267 269 269 271 273 272 272 271 268 267 265 265 265 266 269 273 274 274 274 274 276
281 278 274 274 272 269 265 266 270 272 271 271 268 264 263 264 262 262 266 268 269 269 270 268 268 270 270 273 272 270 269 267 266 264 264 265 266 267 270 273 273 274 275 276
280 278 276 274 273 273 268 264 265 268 269 272 268 265 266 266 264 263 266 268 269 269 270 269 269 271 271 272 271 269 268 268 267 264 264 266 266 267 269 271 271 273 274 275
278 277 277 275 274 273 271 267 266 268 269 269 268 267 267 268 267 266 268 269 270 271 270 270 270 270 271 271 271 270 268 267 266 263 262 264 266 267 270 273 274 274 275 275
279 277 276 276 273 272 271 271 268 268 269 269 269 268 268 271 270 269 269 270 272 272 272 270 269 268 269 271 271 270 267 265 265 264 264 266 268 270 273 275 274 273 274 275
282 279 278 276 274 272 271 269 267 266 266 268 270 269 270 271 271 272 272 270 271 272 272 270 268 269 270 271 270 270 268 267 267 268 268 268 270 270 271 274 274 272 273 276
283 281 277 276 274 272 270 269 268 267 268 268 269 270 271 270 269 270 269 269 269 272 272 269 269 270 271 272 271 271 271 269 269 269 268 269 271 270 271 273 273 272 273 275
282 280 278 276 274 272 270 267 266 269 270 269 270 272 271 269 269 270 270 271 270 271 272 270 270 271 272 272 273 272 271 270 270 269 268 269 271 271 272 273 274 272 272 273
282 279 277 276 276 274 271 269 268 270 272 271 268 269 269 269 268 270 272 273 273 272 272 270 270 272 272 273 273 271 271 270 270 270 269 270 271 271 272 273 273 273 273 273
282 277 275 274 274 273 272 269 270 272 274 272 269 268 267 269 268 269 271 273 274 274 273 271 270 272 272 272 272 271 271 270 269 270 269 270 272 272 273 274 272 273 273 274
283 279 275 273 273 272 270 271 271 272 276 274 271 269 269 269 268 268 270 272 273 274 273 271 271 272 273 273 271 271 271 270 269 270 270 271 273 273 274 273 273 273 273 275
285 281 277 274 273 272 270 271 270 270 273 276 274 273 272 270 269 268 269 271 272 273 273 272 273 273 274 274 272 271 271 270 270 270 271 272 273 273 274 273 272 273 273 275
287 284 280 277 274 271 273 272 270 271 273 274 276 276 275 273 273 271 271 272 274 274 274 273 273 273 273 272 271 270 270 270 270 271 272 272 273 274 274 273 272 274 274 274
286 286 283 280 276 273 270 271 272 271 272 274 277 278 277 276 276 274 273 273 274 274 275 274 273 272 272 272 270 268 268 269 270 272 272 272 273 274 273 272 273 274 275 275
285 285 284 283 280 276 273 272 273 272 272 275 277 280 279 278 277 277 275 274 275 276 276 274 272 272 273 273 270 268 267 268 269 270 271 271 272 274 275 272 273 275 276 276
286 285 284 284 282 278 275 273 273 273 276 276 278 280 280 279 279 280 278 276 277 278 278 275 273 273 272 272 270 268 267 267 267 268 269 270 271 273 274 273 273 275 277 277
287 286 286 286 284 283 279 275 274 275 276 278 279 280 279 278 279 279 279 279 278 278 279 277 275 273 271 270 270 269 267 267 267 267 269 270 271 272 275 274 273 275 276 279
287 288 289 286 285 286 282 278 277 278 278 279 280 280 280 279 279 280 279 279 279 279 280 280 277 274 271 270 270 269 267 265 266 267 268 269 270 274 275 276 276 276 278 280
287 286 287 286 284 284 282 280 280 280 280 280 280 281 281 280 281 281 280 278 278 279 280 281 279 274 272 271 270 268 266 264 264 265 267 268 269 272 274 275 276 277 279 281
288 287 288 288 287 286 284 281 280 280 280 281 282 282 282 281 282 282 283 281 278 279 279 279 278 275 272 271 270 268 267 264 263 264 267 268 269 270 272 273 275 276 279 281
289 287 288 290 288 286 286 284 282 280 280 281 281 281 282 283 282 282 282 282 281 281 279 278 277 275 273 271 270 269 266 264 265 265 266 267 268 269 270 271 274 276 279 281
Height
5832 5833 5833 5833 5834 5834 5834 5834 5835 5835 5834 5834 5835 5835 5835 5835 5835 5835 5836 5836 5836 5836 5836 5836 5835 5835 5835 5835 5835 5835 5835 5835 5835 5835 5835 5835 5835 5834 5834 5833 5833 5833 5832 5832
5830 5830 5831 5830 5830 5831 5831 5832 5832 5832 5832 5832 5832 5832 5832 5832 5832 5833 5833 5833 5833 5833 5833 5832 5832 5832 5831 5831 5831 5831 5831 5831 5831 5831 5831 5831 5831 5831 5830 5830 5830 5829 5829 5828
5827 5828 5827 5827 5827 5828 5828 5829 5829 5829 5829 5829 5829 5830 5829 5829 5829 5829 5830 5830 5830 5830 5830 5829 5829 5828 5828 5828 5828 5828 5827 5827 5827 5827 5827 5827 5827 5827 5827 5827 5826 5826 5825 5825
5824 5824 5824 5824 5824 5824 5825 5825 5825 5825 5825 5825 5826 5826 5826 5826 5826 5826 5826 5826 5827 5827 5826 5826 5826 5825 5825 5825 5824 5824 5824 5823 5823 5823 5823 5823 5823 5823 5823 5823 5822 5822 5821 5821
5821 5821 5821 5821 5821 5821 5821 5822 5822 5822 5822 5822 5822 5823 5823 5822 5823 5823 5823 5823 5823 5823 5823 5823 5822 5822 5821 5821 5821 5820 5820 5819 5819 5819 5819 5819 5819 5819 5819 5819 5818 5818 5817 5817
5818 5817 5817 5818 5818 5818 5818 5818 5818 5818 5818 5819 5819 5819 5819 5819 5819 5819 5819 5819 5819 5819 5819 5818 5818 5818 5817 5817 5817 5816 5816 5815 5815 5815 5815 5815 5815 5815 5814 5814 5814 5813 5813 5812
5814 5814 5814 5814 5814 5814 5814 5815 5815 5815 5815 5815 5815 5815 5816 5815 5815 5815 5815 5815 5814 5814 5814 5814 5813 5813 5813 5813 5812 5812 5812 5811 5811 5811 5811 5811 5811 5810 5810 5809 5809 5809 5808 5807
5811 5811 5810 5810 5810 5810 5810 5811 5812 5812 5812 5811 5811 5811 5812 5812 5811 5811 5810 5810 5810 5809 5809 5809 5809 5808 5808 5808 5807 5807 5807 5807 5807 5806 5806 5806 5806 5805 5805 5805 5804 5803 5803 5802
5807 5807 5807 5806 5806 5806 5806 5806 5807 5808 5807 5807 5807 5807 5807 5807 5807 5806 5806 5806 5805 5805 5804 5804 5803 5803 5803 5802 5802 5802 5802 5802 5802 5801 5801 5801 5800 5800 5800 5799 5799 5798 5797 5797
5803 5803 5803 5802 5802 5802 5802 5802 5802 5802 5802 5802 5803 5803 5803 5803 5802 5802 5801 5801 5800 5800 5799 5798 5798 5798 5797 5797 5797 5796 5796 5796 5796 5795 5795 5795 5794 5794 5794 5793 5793 5792 5791 5790
5798 5799 5798 5798 5797 5797 5797 5797 5797 5797 5797 5798 5798 5800 5798 5797 5797 5797 5796 5796 5795 5794 5794 5793 5793 5792 5792 5792 5791 5791 5790 5790 5790 5790 5789 5788 5788 5788 5787 5787 5786 5785 5785 5784
5793 5793 5793 5793 5793 5792 5792 5792 5792 5793 5792 5792 5793 5796 5792 5792 5791 5791 5791 5790 5789 5789 5788 5787 5787 5787 5786 5786 5785 5785 5784 5784 5784 5783 5783 5782 5782 5781 5781 5780 5779 5779 5778 5777
5788 5788 5788 5788 5789 5788 5787 5786 5786 5787 5787 5787 5787 5790 5786 5786 5786 5786 5785 5785 5784 5783 5782 5781 5781 5780 5780 5779 5779 5779 5778 5778 5777 5777 5776 5776 5775 5775 5774 5773 5772 5771 5770 5769
5783 5783 5784 5784 5782 5781 5781 5781 5781 5781 5781 5781 5781 5782 5781 5780 5780 5779 5779 5779 5778 5777 5776 5776 5775 5774 5774 5773 5772 5772 5772 5771 5770 5770 5769 5769 5768 5768 5767 5766 5765 5764 5763 5762
5777 5777 5777 5777 5776 5776 5775 5775 5775 5775 5775 5775 5776 5775 5775 5774 5773 5773 5772 5772 5771 5771 5770 5769 5769 5768 5767 5767 5766 5765 5765 5764 5764 5763 5762 5762 5761 5760 5759 5758 5758 5757 5756 5755
5772 5771 5771 5771 5771 5770 5770 5770 5770 5770 5769 5769 5769 5769 5768 5767 5766 5766 5766 5765 5765 5764 5763 5762 5762 5761 5761 5760 5759 5758 5758 5757 5757 5756 5755 5755 5754 5753 5752 5751 5750 5750 5749 5748
5766 5766 5765 5765 5765 5764 5764 5765 5764 5764 5763 5763 5762 5763 5761 5761 5760 5759 5759 5758 5758 5757 5756 5756 5755 5754 5753 5753 5752 5751 5750 5750 5749 5749 5748 5747 5747 5746 5745 5744 5743 5742 5741 5740
5761 5760 5759 5758 5759 5758 5761 5759 5758 5757 5757 5756 5756 5755 5754 5754 5753 5752 5752 5751 5750 5750 5749 5748 5747 5746 5745 5745 5744 5743 5743 5742 5742 5741 5741 5740 5740 5739 5738 5737 5736 5735 5734 5732
5755 5754 5753 5752 5751 5751 5753 5752 5751 5751 5750 5749 5749 5748 5747 5747 5746 5745 5744 5743 5743 5742 5741 5740 5739 5738 5737 5737 5736 5736 5735 5735 5734 5734 5733 5733 5732 5731 5731 5730 5729 5727 5726 5725
5750 5748 5748 5746 5744 5744 5747 5746 5744 5744 5743 5743 5742 5741 5740 5739 5739 5739 5737 5736 5735 5734 5733 5732 5731 5730 5729 5729 5728 5728 5727 5727 5726 5726 5726 5725 5725 5724 5723 5722 5721 5720 5719 5718
5744 5742 5741 5740 5738 5737 5739 5738 5737 5738 5737 5736 5734 5733 5732 5731 5731 5731 5729 5728 5727 5725 5724 5723 5722 5722 5721 5720 5720 5719 5719 5719 5719 5718 5718 5717 5717 5716 5715 5715 5714 5713 5712 5710
5737 5736 5735 5733 5731 5733 5731 5730 5730 5729 5728 5727 5726 5725 5724 5723 5723 5722 5721 5720 5719 5718 5717 5715 5714 5713 5713 5712 5711 5711 5711 5711 5711 5710 5710 5710 5709 5708 5708 5707 5706 5705 5704 5703
5731 5730 5728 5727 5727 5725 5723 5722 5721 5721 5720 5719 5718 5717 5716 5716 5715 5714 5713 5712 5711 5709 5708 5707 5705 5704 5703 5703 5703 5702 5702 5702 5702 5702 5702 5702 5701 5701 5700 5699 5698 5698 5697 5695
5724 5722 5720 5719 5718 5717 5715 5714 5713 5713 5712 5711 5711 5710 5709 5708 5707 5706 5705 5704 5703 5701 5700 5698 5697 5695 5694 5694 5694 5693 5693 5694 5694 5694 5694 5694 5693 5693 5692 5692 5691 5690 5689 5688
5717 5715 5713 5712 5711 5710 5709 5707 5706 5705 5704 5704 5703 5702 5701 5700 5699 5698 5696 5695 5694 5692 5691 5690 5688 5687 5686 5685 5685 5684 5684 5685 5685 5685 5686 5685 5685 5685 5685 5684 5683 5683 5682 5680
5710 5708 5707 5706 5705 5703 5702 5700 5699 5698 5697 5696 5695 5694 5693 5691 5691 5689 5688 5686 5685 5683 5682 5681 5679 5678 5677 5676 5676 5676 5676 5676 5676 5677 5677 5677 5677 5677 5677 5676 5676 5675 5674 5673